Tracking 35275 objects as of 9-Sep-2026
HD Live streaming from Space Station
objects crossing your sky now

VCUB1


VCUB1 is no longer on orbit


NORAD ID: 56215
Int'l Code: 2023-054AP
Launch date: April 15, 2023
Source: Brazil (BRAZ)
Launch site: AIR FORCE WESTERN TEST RANGE (AFWTR)
Decay date: 2025-02-01
Your satellite tracking list
Your tracking list is empty




NASA's NSSDC Master Catalog

Two Line Element Set (TLE):
1 56215U 23054AP  25026.64335859  .17692275  25190-5  41834-3 0  9995
2 56215  97.3094 302.9093 0012554 271.0910  88.8954 16.45299738101183
Source of the keplerian elements: AFSPC